Weather observations for the past three days for
Lakeland Linder International Airport
Metric (Imperial)
Date Time (edt) Wind (kph) Vis. (km) Weather Sky Cond. Temperature (ºC) Relative Humidity Wind Chill (°C) Heat Index (°C) Pressure Precipitation (cm)
Air Dwpt 6 hour altimeter (cm) sea level (mb) 1 hr 3 hr 6 hr
Max. Min.
06 12:50 S 13 16.09 A Few Clouds FEW060 32 18 43% 33 76.33 0.0
06 11:50 SE 17 16.09 A Few Clouds FEW060 30 18 49% 31 76.33 0.0
06 10:50 SE 15 16.09 Clear SKC 28 20 62% 30 76.33 0.0
06 09:50 SE 15 16.09 Clear SKC 27 21 70% 29 76.35 0.0
06 08:50 SE 17 16.09 Clear SKC 25 22 83% 26 76.28 0.0
06 07:50 SE 6 16.09 Clear SKC 21 20 94% 76.28 0.0
06 06:50 SE 9 16.09 Clear SKC 19 18 94% 76.23 0.0
06 05:55 Calm 16.09 Fair CLR 19.3 17.9 92% 76.23 0.0
06 05:50 Calm 16.09 Clear SKC 19 18 94% 76.2 0.0
06 05:35 Calm 16.09 Fair CLR 19.6 17.7 89% 76.2 0.0
06 05:15 Calm 16.09 Fair CLR 19.1 17.3 89% 76.2 0.0
06 04:55 SE 6 16.09 Fair CLR 19.2 17.1 88% 76.2 0.0
06 04:50 Calm 16.09 Clear SKC 19 17 88% 76.2 0.0
06 04:35 Calm 16.09 Fair CLR 19.4 16.9 86% 76.2 0.0
06 04:15 E 7 16.09 Fair CLR 19.4 16.8 85% 76.2 0.0
06 03:50 Calm 16.09 Clear SKC 19 17 88% 76.23 0.0
06 03:35 SE 6 16.09 Fair CLR 19.4 16.6 84% 76.2 0.0
06 03:15 Calm 16.09 Fair CLR 19.5 16.5 83% 76.23 0.0
06 02:55 Calm 16.09 Fair CLR 20.2 16.6 80% 76.23 0.0
06 02:50 Calm 16.09 Clear SKC 20 17 83% 76.23 0.0
06 01:55 Calm 16.09 A Few Clouds FEW310 20.2 16.3 27.1 20.2 78% 76.25 0.0
06 01:50 Calm 16.09 Clear SKC 20 16 78% 76.25 0.0
06 01:35 Calm 16.09 A Few Clouds FEW310 20.7 16.3 76% 76.28 0.0
06 01:15 Calm 16.09 Fair CLR 21 16.3 75% 76.28 0.0
06 00:55 E 6 16.09 Fair CLR 21 16.1 74% 76.3 0.0
06 00:50 E 6 16.09 Clear SKC 21 16 73% 76.3 0.0
06 00:35 E 6 16.09 Fair CLR 20.8 16.1 75% 76.3 0.0
06 00:15 E 9 16.09 Fair CLR 21 16 73% 76.28 0.0
05 23:50 SE 9 16.09 Clear SKC 22 16 69% 76.3 0.0
05 22:50 E 9 16.09 Clear SKC 22 16 69% 76.28 0.0
05 21:50 SE 15 16.09 Clear SKC 24 16 61% 25 76.25 0.0
05 20:50 E 22 16.09 Clear SKC 25 16 57% 26 76.15 0.0
05 19:50 E 9 16.09 Clear SKC 28 16 48% 28 76.1 0.0
05 18:50 E 11 16.09 Partly Cloudy SCT060 29 15 43% 29 76.1 0.0
05 17:50 E 11 16.09 A Few Clouds FEW090 30 14 38% 29 76.07 0.0
05 16:50 Calm 16.09 A Few Clouds FEW080 30 14 38% 29 76.07 0.0
05 15:50 SE 9 16.09 A Few Clouds FEW080 30 14 38% 29 76.12 0.0
05 14:50 E 13 16.09 Mostly Cloudy SCT070 BKN080 29 15 43% 29 76.17 0.0
05 13:50 SE 6 16.09 Mostly Cloudy BKN060 28 16 48% 28 76.25 0.0
05 12:50 E 20 16.09 Mostly Cloudy BKN060 29 16 45% 29 76.25 0.0
05 11:50 E 19 16.09 Mostly Cloudy SCT043 BKN055 27 16 51% 27 76.28 0.0
05 10:50 E 22 16.09 Partly Cloudy SCT055 26 17 58% 27 76.28 0.0
05 09:50 E 20 16.09 Partly Cloudy SCT055 25 18 65% 26 76.25 0.0
05 08:50 E 15 16.09 Mostly Cloudy BKN055 23 19 78% 76.23 0.0
05 07:50 E 7 16.09 Partly Cloudy SCT055 20 18 88% 76.2 0.0
05 05:55 NE 6 16.09 Fair CLR 18.7 17.3 92% 76.12 0.0
05 05:35 NE 9 14.48 Fair CLR 19.2 17.5 90% 76.12 0.0
05 05:15 E 9 16.09 Fair CLR 18.7 17.3 92% 76.12 0.0
05 04:55 E 11 14.48 Fair CLR 18.2 17.1 93% 76.1 0.0
05 04:35 E 9 14.48 Fair CLR 18.6 17.1 91% 76.1 0.0
05 04:15 E 7 14.48 Fair CLR 18.6 17.2 92% 76.1 0.0
05 03:55 E 9 14.48 Fair CLR 18.8 17.2 90% 76.1 0.0
05 03:35 E 9 14.48 Fair CLR 18.7 17.1 90% 76.12 0.0
05 03:15 E 7 16.09 Fair CLR 18.8 17 89% 76.12 0.0
05 02:55 E 9 16.09 Fair CLR 18.9 17 89% 76.12 0.0
05 02:35 E 9 16.09 Fair CLR 19.3 17.1 87% 76.15 0.0
05 02:15 E 7 16.09 Fair CLR 19.3 16.9 86% 76.17 0.0
05 01:55 E 9 16.09 Fair CLR 19.5 16.9 24 19.5 85% 76.17 0.0
05 01:35 E 11 16.09 Fair CLR 19.5 16.9 85% 76.17 0.0
05 01:15 E 11 16.09 Fair CLR 19.8 16.9 83% 76.23 0.0
05 00:55 E 9 14.48 A Few Clouds FEW060 20.1 16.9 82% 76.23 0.0
05 00:35 E 11 16.09 A Few Clouds FEW060 20.2 16.8 81% 76.23 0.0
05 00:15 E 13 16.09 Fair CLR 20.7 17 79% 76.25 0.0
04 19:50 E 24 16.09 Clear SKC 24 16 61% 25 76.12 0.0
04 18:50 E 24 16.09 A Few Clouds FEW080 26 15 51% 27 76.07 0.0
04 17:50 E 22 16.09 Mostly Cloudy BKN055 27 15 48% 27 76.07 0.0
04 16:50 E 17 16.09 Mostly Cloudy BKN055 27 15 48% 27 76.07 0.0
04 15:50 E 17 16.09 Mostly Cloudy BKN060 27 14 45% 27 76.12 0.0
04 14:50 E 20 16.09 Mostly Cloudy BKN060 27 13 42% 27 76.17 0.0
04 13:50 NE 17 G 28 16.09 Partly Cloudy SCT060 27 13 42% 27 76.25 0.0
04 12:50 NE 22 G 37 16.09 Partly Cloudy SCT060 27 13 42% 27 76.3 0.0
04 11:50 E 24 G 37 16.09 Partly Cloudy SCT050 26 13 45% 26 76.35 0.0
04 10:50 NE 30 16.09 Clear SKC 25 12 44% 26 76.35 0.0
04 09:50 NE 24 16.09 Clear SKC 24 15 57% 25 76.35 0.0
04 08:50 NE 19 16.09 Clear SKC 22 16 69% 76.3 0.0
04 06:50 N 7 16.09 Clear SKC 17 15 88% 76.25 0.0
04 05:55 N 9 16.09 Fair CLR 16.9 15.4 91% 76.23 0.0
04 05:50 N 9 16.09 Clear SKC 17 15 88% 76.23 0.0
04 05:35 N 9 16.09 Fair CLR 17 15.5 91% 76.23 0.0
04 05:15 N 9 16.09 Fair CLR 17.2 15.5 90% 76.2 0.0
04 04:55 N 11 16.09 A Few Clouds FEW160 17.6 15.6 88% 76.2 0.0
04 04:50 N 9 16.09 A Few Clouds FEW160 18 16 88% 76.2 0.0
04 04:35 N 9 16.09 Partly Cloudy SCT160 17.8 15.8 88% 76.2 0.0
04 04:15 N 7 16.09 Mostly Cloudy BKN160 BKN180 18 15.8 87% 76.2 0.0
04 03:55 N 9 16.09 Overcast OVC160 18.6 16.2 86% 76.23 0.0
04 03:50 N 9 16.09 Overcast OVC160 19 16 83% 76.23 0.0
04 03:35 N 11 16.09 Overcast BKN160 OVC180 19 16 83% 76.25 0.0
04 03:15 N 6 16.09 Overcast BKN160 OVC180 19.2 16.1 82% 76.23 0.0
04 02:55 N 9 16.09 Overcast OVC170 19.3 16.1 82% 76.23 0.0
04 02:35 N 9 16.09 Overcast OVC160 19.4 16.1 81% 76.23 0.0
04 02:15 N 9 16.09 Overcast OVC160 19.5 16 80% 76.25 0.0
04 01:55 N 9 16.09 Mostly Cloudy BKN170 19.8 15.8 23 19.8 78% 76.25 0.0
04 01:50 N 7 16.09 Mostly Cloudy BKN160 20 16 78% 76.25 0.0
04 01:35 NE 11 16.09 Mostly Cloudy BKN170 20 15.8 77% 76.25 0.0
04 01:15 NE 13 16.09 Mostly Cloudy BKN160 20 15.9 77% 76.25 0.0
04 00:55 NE 11 16.09 Mostly Cloudy BKN160 20.2 15.8 76% 76.33 0.0
04 00:50 NE 11 16.09 Mostly Cloudy BKN160 20 16 78% 76.33 0.0
04 00:35 NE 11 16.09 Mostly Cloudy BKN160 20.2 16 77% 76.33 0.0
04 00:15 NE 11 16.09 Overcast OVC160 20.5 15.8 75% 76.35 0.0
03 23:50 NE 11 16.09 Clear SKC 21 16 73% 76.35 0.0
03 22:50 E 15 16.09 Clear SKC 21 16 73% 76.33 0.0
03 21:50 E 13 16.09 Clear SKC 21 16 73% 76.3 0.0
03 20:50 E 17 16.09 A Few Clouds FEW043 22 16 69% 76.25 0.0
03 18:50 E 17 16.09 Mostly Cloudy BKN043 24 16 61% 25 76.17 0.0
03 17:50 E 19 16.09 Mostly Cloudy BKN049 25 16 57% 26 76.17 0.0
03 16:50 NE 11 16.09 Mostly Cloudy BKN043 26 16 54% 27 76.2 0.0
03 15:50 NE 22 G 37 16.09 Mostly Cloudy BKN038 25 16 57% 26 76.25 0.0
03 14:50 E 19 G 31 16.09 Mostly Cloudy BKN035 26 17 58% 27 76.33 0.0
03 13:50 NE 19 G 31 16.09 Overcast BKN030 OVC060 24 17 65% 25 76.38 0.0
Date Time (edt) Wind (kph) Vis. (km) Weather Sky Cond. Air Dwpt Max. Min. Relative Humidity Wind Chill (°C) Heat Index (°C) altimeter (cm) sea level (mb) 1 hr 3 hr 6 hr
6 hour
Temperature (ºC) Pressure Precipitation (cm)